This is the latest recevied weather packets stored in our database for station/object W2TAO. If no packets are shown the sender has not sent any weather packets the latest 10 day(s).
| Time | Temp. | Humidity | Pressure | Rain* | Wind** | Luminosity | Snow |
|---|---|---|---|---|---|---|---|
| 1778114228 | 9.44° C | 97% | 1010.7 hPa | 0 mm | - | 0 W/m² | - |
| 1778113923 | 9.44° C | 97% | 1010.5 hPa | 0 mm | - | 0 W/m² | - |
| 1778113620 | 10° C | 98% | 1010.2 hPa | 0 mm | - | 0 W/m² | - |
| 1778113315 | 10° C | 98% | 1010.4 hPa | 0 mm | - | 0 W/m² | - |
| 1778113013 | 10° C | 98% | 1010.2 hPa | 0 mm | - | 0 W/m² | - |
| 1778112710 | 10° C | 98% | 1010.3 hPa | 0 mm | - | 0 W/m² | - |
| 1778112406 | 10.56° C | 98% | 1010.4 hPa | 0 mm | - | 0 W/m² | - |
| 1778112102 | 10° C | 98% | 1010.3 hPa | 0 mm | - | 0 W/m² | - |
| 1778111799 | 10.56° C | 98% | 1010.3 hPa | 0 mm | - | 0 W/m² | - |
| 1778111499 | 10.56° C | 98% | 1010.2 hPa | 0 mm | - | 1 W/m² | - |
| 1778111197 | 10.56° C | 98% | 1010.1 hPa | 0 mm | - | 1 W/m² | - |
| 1778110894 | 10.56° C | 98% | 1010 hPa | 0 mm | - | 2 W/m² | - |
| 1778110591 | 11.11° C | 99% | 1009.9 hPa | 0 mm | - | 3 W/m² | - |
| 1778110288 | 11.11° C | 98% | 1009.7 hPa | 0 mm | - | 5 W/m² | - |
| 1778109984 | 11.67° C | 98% | 1009.5 hPa | 0 mm | - | 6 W/m² | - |
| 1778109680 | 11.67° C | 98% | 1009.4 hPa | 0 mm | - | 8 W/m² | - |
| 1778109377 | 11.67° C | 98% | 1009.4 hPa | 0 mm | - | 9 W/m² | - |
| 1778109075 | 11.67° C | 98% | 1009 hPa | 0 mm | - | 14 W/m² | - |
| 1778108772 | 12.22° C | 98% | 1009.1 hPa | 0 mm | - | 11 W/m² | - |
| 1778108469 | 12.78° C | 98% | 1008.8 hPa | 0 mm | - | 6 W/m² | - |
| 1778108165 | 12.78° C | 98% | 1008.8 hPa | 0 mm | - | 19 W/m² | - |
| 1778107861 | 13.33° C | 99% | 1008.7 hPa | 0 mm | - | 15 W/m² | - |
| 1778107559 | 13.89° C | 99% | 1008.4 hPa | 1.27 mm | - | 17 W/m² | - |
| 1778107255 | 15° C | 99% | 1008.2 hPa | 4.83 mm | - | 9 W/m² | - |
| 1778106951 | 15° C | 99% | 1007.8 hPa | 2.29 mm | - | 3 W/m² | - |
* Rain latest hour (hover to see other rain measurements)
** Current wind speed in m/s (hover to see current wind gust speed)